Home   Weather   Yazd   Past weeks
Flag for Iran

Past Weather in Yazd, Iran — Yesterday and Last 2 Weeks

Now
48 °F

Clear.


Feels Like: 46 °F
Forecast: 73 / 50 °F
Wind: 5 mph from West

Location: Yazd Airport

Current Time: Mar 23, 2019 at 5:03:31 am

Latest Report: Mar 23, 2019 at 4:30 am


Visibility: 10 mi

Pressure: 30.09 "Hg (25.96 "Hg at 1218m altitude)

Humidity: 34%

Dew Point: 21 °F

Location of YazdLocation

Past Weather in Yazd — Graph

°F

Yazd Temperature Yesterday

Maximum temperature yesterday: 66 °F (at 5:00 pm)
Minimum temperature yesterday: 45 °F (at 5:30 am)
Average temperature yesterday: 56 °F

High & Low Weather Summary for the Past Weeks

 TemperatureHumidityPressure
High77 °F (Mar 14, 3:30 pm)100% (Mar 10, 7:00 am)30.24 "Hg (Mar 10, 7:00 am)
Low37 °F (Mar 9, 6:00 pm)5% (Mar 8, 5:30 pm)29.56 "Hg (Mar 17, 3:30 pm)
Average57 °F31%30.00 "Hg
* Reported Mar 8 2:30 am — Mar 23 3:30 am, Yazd. Weather by CustomWeather, © 2019

Note: Actual official high and low records may vary slightly from our data, if they occured in-between our weather recording intervals... More about our weather records

Advertising

Yazd Weather History for the Previous 24 Hours

Scroll right to see more
 ConditionsComfort  
Time TempWeatherWind HumidityBarometerVisibility
3:30 am
Sat, Mar 23
50 °FClear.5 mph32%30.09 "Hg10 mi
2:30 am52 °FClear.2 mph32%30.09 "Hg10 mi
1:30 am54 °FClear.7 mph30%30.09 "Hg10 mi
12:30 am54 °FPassing clouds.7 mph28%30.09 "HgN/A
11:30 pm
Fri, Mar 22
57 °FPassing clouds.5 mph23%30.09 "HgN/A
11:00 pm55 °FClear.5 mph26%30.09 "Hg10 mi
10:30 pm55 °FClear.7 mph26%30.07 "Hg10 mi
10:00 pm57 °FClear.5 mph25%30.07 "Hg10 mi
9:30 pm59 °FClear.2 mph23%30.07 "Hg10 mi
9:00 pm59 °FClear.2 mph23%30.07 "Hg10 mi
8:30 pm61 °FClear.2 mph22%30.04 "Hg10 mi
8:00 pm61 °FClear.5 mph22%30.04 "Hg10 mi
7:30 pm63 °FSunny.2 mph20%30.04 "Hg10 mi
7:00 pm64 °FPassing clouds.5 mph19%30.04 "HgN/A
6:30 pm64 °FPassing clouds.2 mph19%30.01 "HgN/A
6:00 pm66 °FPassing clouds.2 mph18%30.01 "HgN/A
5:30 pm64 °FPassing clouds.5 mph21%30.04 "HgN/A
5:00 pm66 °FPassing clouds.5 mph21%30.04 "HgN/A
4:20 pm64 °FPassing clouds.7 mph22%30.04 "HgN/A
3:30 pm64 °FSunny.7 mph24%30.04 "Hg10 mi
2:30 pm63 °FSunny.5 mph25%30.07 "Hg10 mi
1:30 pm61 °FPassing clouds.5 mph29%30.12 "HgN/A
12:30 pm57 °FPassing clouds.7 mph36%30.12 "HgN/A
12:00 pm57 °FPassing clouds.2 mph36%30.15 "HgN/A
11:30 am55 °FPassing clouds.5 mph38%30.15 "HgN/A
11:00 am54 °FPassing clouds.2 mph41%30.15 "HgN/A
10:30 am52 °FPassing clouds.2 mph47%30.15 "HgN/A
9:30 am48 °FSunny.7 mph50%30.15 "Hg10 mi
8:30 am46 °FSunny.7 mph53%30.15 "Hg10 mi
8:00 am46 °FSunny.7 mph50%30.12 "Hg10 mi
7:30 am45 °FSunny.7 mph53%30.12 "Hg10 mi
6:30 am45 °FClear.7 mph53%30.09 "Hg10 mi
5:30 am45 °FClear.7 mph53%30.09 "Hg10 mi
Weather by CustomWeather, © 2019

See weather overview